GW6564 Weather Reports


time (UTC)temp
F
wind
direction
speed
knots
gust
knots
rain 1hr
in
rain 24hr
in
rain mn
in
humidity
%
barometer
mb
20260505082756 63 238 2.6 5.2 0.00 0.00 0.00 66 1010.2
20260505082253 63 252 1.7 5.2 0.00 0.00 0.00 66 1010.3
20260505081749 63 238 3.5 6.1 0.00 0.00 0.00 66 1010.3
20260505081246 63 263 2.6 6.1 0.00 0.00 0.00 67 1010.1
20260505080743 63 211 1.7 5.2 0.00 0.00 0.00 66 1009.9
20260505080238 62 209 8.7 9.6 0.00 0.00 0.00 67 1010.2
20260505075734 62 256 2.6 3.5 0.00 0.00 0.00 67 1010.3
20260505075232 62 254 1.7 2.6 0.00 0.00 0.00 67 1010.2
20260505074729 62 240 1.7 3.5 0.00 0.00 0.00 67 1010.0
20260505074226 62 231 2.6 5.2 0.00 0.00 0.00 67 1010.2
20260505073724 62 255 3.5 5.2 0.00 0.00 0.00 67 1010.1
20260505073221 62 186 3.5 6.1 0.00 0.00 0.00 67 1010.2
20260505072717 62 201 3.5 6.1 0.00 0.00 0.00 66 1010.2
20260505072214 62 214 2.6 9.6 0.00 0.00 0.00 66 1010.2
20260505071709 62 243 1.7 5.2 0.00 0.00 0.00 67 1010.0
20260505071207 62 250 1.7 5.2 0.00 0.00 0.00 67 1009.9
20260505070704 61 241 1.7 8.7 0.00 0.00 0.00 67 1010.1
20260505070200 61 239 0.9 2.6 0.00 0.00 0.00 67 1010.0
20260505065656 62 235 3.5 5.2 0.00 0.00 0.00 67 1010.2
20260505065153 62 242 2.6 3.5 0.00 0.00 0.00 67 1010.0
20260505064650 62 218 3.5 3.5 0.00 0.00 0.00 66 1010.0
20260505064148 62 250 1.7 7.0 0.00 0.00 0.00 65 1010.1
20260505063645 62 225 6.1 7.0 0.00 0.00 0.00 65 1010.0
20260505063141 62 201 1.7 5.2 0.00 0.00 0.00 64 1010.2
20260505062638 63 207 1.7 5.2 0.00 0.00 0.00 63 1010.0
20260505062135 63 231 5.2 7.0 0.00 0.00 0.00 63 1010.0
20260505061632 63 213 0.9 3.5 0.00 0.00 0.00 62 1010.0
20260505061130 63 229 1.7 3.5 0.00 0.00 0.00 61 1010.1
20260505060628 63 234 4.3 6.1 0.00 0.00 0.00 61 1010.1
20260505060124 63 245 5.2 7.0 0.00 0.00 0.00 61 1010.1
20260505055619 63 242 1.7 2.6 0.00 0.00 0.00 62 1010.1
20260505055116 63 245 2.6 5.2 0.00 0.00 0.00 62 1010.0
20260505054614 63 248 1.7 3.5 0.00 0.00 0.00 62 1010.0
20260505054112 63 233 2.6 7.8 0.00 0.00 0.00 61 1010.1
20260505053609 63 194 3.5 7.0 0.00 0.00 0.00 61 1010.3
20260505053105 63 224 2.6 5.2 0.00 0.00 0.00 61 1010.1
20260505052602 63 205 1.7 5.2 0.00 0.00 0.00 61 1010.3
20260505052100 63 224 2.6 5.2 0.00 0.00 0.00 60 1010.3
20260505051556 63 250 0.9 5.2 0.00 0.00 0.00 60 1010.2
20260505051055 63 252 3.5 7.8 0.00 0.00 0.00 60 1010.2
20260505050552 63 197 3.5 7.8 0.00 0.00 0.00 60 1010.1
20260505041520 63 235 3.5 6.1 0.00 0.00 0.00 59 1010.2
20260505041017 63 240 3.5 12.2 0.00 0.00 0.00 58 1010.2
20260505040515 64 215 3.5 3.5 0.00 0.00 0.00 58 1010.2
20260505040012 63 176 5.2 8.7 0.00 0.00 0.00 58 1010.2
20260505035508 63 215 1.7 5.2 0.00 0.00 0.00 59 1010.3
20260505035005 63 211 4.3 6.1 0.00 0.00 0.00 59 1010.2
20260505034501 63 221 3.5 5.2 0.00 0.00 0.00 58 1010.3
20260505033958 64 217 5.2 7.0 0.00 0.00 0.00 59 1010.3
20260505033455 64 230 6.1 12.2 0.00 0.00 0.00 58 1010.4
20260505032953 64 206 7.0 7.8 0.00 0.00 0.00 58 1010.3
20260505032450 64 210 4.3 9.6 0.00 0.00 0.00 59 1010.2
20260505031946 64 211 3.5 3.5 0.00 0.00 0.00 59 1010.2
20260505031443 64 219 2.6 7.0 0.00 0.00 0.00 58 1010.1
20260505030940 64 213 4.3 9.6 0.00 0.00 0.00 58 1010.3
20260505030436 64 208 3.5 5.2 0.00 0.00 0.00 58 1010.3
20260505025932 64 230 3.5 7.8 0.00 0.00 0.00 58 1010.4
20260505025429 64 211 4.3 8.7 0.00 0.00 0.00 57 1010.4
20260505024928 64 230 2.6 6.1 0.00 0.00 0.00 57 1010.3
20260505024425 64 191 3.5 7.0 0.00 0.00 0.00 56 1010.5
20260505023922 64 216 2.6 5.2 0.00 0.00 0.00 55 1010.5
20260505023419 64 246 0.9 5.2 0.00 0.00 0.00 55 1010.5
20260505022916 64 217 4.3 6.1 0.00 0.00 0.00 55 1010.6
20260505022414 64 210 1.7 7.8 0.00 0.00 0.00 54 1010.6
20260505021911 64 202 4.3 5.2 0.00 0.00 0.00 53 1010.4
20260505021407 64 208 5.2 6.1 0.00 0.00 0.00 52 1010.6
20260505020903 64 207 3.5 5.2 0.00 0.00 0.00 51 1010.4
20260505020358 63 224 3.5 5.2 0.00 0.00 0.00 51 1010.5
20260505015855 63 220 1.7 2.6 0.00 0.00 0.00 50 1010.5
20260505015353 63 226 0.9 0.9 0.00 0.00 0.00 49 1010.6
20260505014850 64 231 0.0 2.6 0.00 0.00 0.00 49 1010.4
20260505014347 64 232 0.0 3.5 0.00 0.00 0.00 48 1010.4
20260505013843 64 224 0.9 1.7 0.00 0.00 0.00 47 1010.4
20260505013340 65 240 0.9 0.9 0.00 0.00 0.00 46 1010.5
20260505012839 65 219 1.7 2.6 0.00 0.00 0.00 45 1010.6
20260505012337 66 225 1.7 3.5 0.00 0.00 0.00 45 1010.3
20260505011832 66 228 0.9 5.2 0.00 0.00 0.00 45 1010.3
20260505011329 66 194 1.7 2.6 0.00 0.00 0.00 44 1010.3
20260505010825 66 228 1.7 3.5 0.00 0.00 0.00 44 1010.3
20260505010321 66 226 1.7 3.5 0.00 0.00 0.00 44 1010.1
20260505005818 66 219 4.3 5.2 0.00 0.00 0.00 43 1010.1
20260505005315 66 235 0.9 3.5 0.00 0.00 0.00 43 1010.0
20260505004812 67 208 1.7 2.6 0.00 0.00 0.00 42 1010.0
20260505004308 67 230 1.7 2.6 0.00 0.00 0.00 42 1009.8
20260505003806 68 221 3.5 5.2 0.00 0.00 0.00 41 1009.9
20260505003303 68 223 3.5 6.1 0.00 0.00 0.00 40 1009.9
20260505002759 68 207 2.6 7.8 0.00 0.00 0.00 40 1009.9
20260505002256 68 208 2.6 3.5 0.00 0.00 0.00 40 1009.7
20260505001754 68 220 1.7 2.6 0.00 0.00 0.00 40 1009.7
20260505001251 68 231 0.9 1.7 0.00 0.00 0.00 40 1009.7
20260505000748 69 233 0.0 0.9 0.00 0.00 0.00 39 1009.6
20260505000246 69 239 0.9 1.7 0.00 0.00 0.00 38 1009.6
20260504235742 69 225 3.5 5.2 0.00 0.00 0.00 37 1009.6
20260504235239 70 226 1.7 5.2 0.00 0.00 0.00 37 1009.4
20260504234736 70 208 2.6 6.1 0.00 0.00 0.00 37 1009.5
20260504234233 70 232 2.6 5.2 0.00 0.00 0.00 37 1009.6
20260504233730 70 201 2.6 5.2 0.00 0.00 0.00 36 1009.4
20260504233225 70 238 0.9 5.2 0.00 0.00 0.00 36 1009.3
20260504232723 71 244 0.9 1.7 0.00 0.00 0.00 36 1009.4
20260504232219 71 354 3.5 5.2 0.00 0.00 0.00 36 1009.4
20260504231716 71 200 2.6 5.2 0.00 0.00 0.00 35 1009.5
20260504231213 71 256 1.7 5.2 0.00 0.00 0.00 35 1009.4
20260504230709 71 227 4.3 9.6 0.00 0.00 0.00 34 1009.4
20260504230208 72 209 6.1 8.7 0.00 0.00 0.00 34 1009.3
20260504225706 72 224 2.6 5.2 0.00 0.00 0.00 34 1009.6
20260504225201 72 273 3.5 9.6 0.00 0.00 0.00 33 1009.4
20260504224659 72 261 4.3 9.6 0.00 0.00 0.00 33 1009.3
20260504224156 72 262 4.3 7.0 0.00 0.00 0.00 33 1009.5
20260504223653 72 208 7.0 8.7 0.00 0.00 0.00 32 1009.4
20260504223148 72 276 5.2 8.7 0.00 0.00 0.00 32 1009.4
20260504222645 72 231 5.2 12.2 0.00 0.00 0.00 32 1009.4
20260504222142 73 289 3.5 8.7 0.00 0.00 0.00 32 1009.4
20260504221640 73 270 3.5 9.6 0.00 0.00 0.00 32 1009.4
20260504221136 73 240 3.5 7.8 0.00 0.00 0.00 32 1009.5
20260504220633 72 204 4.3 6.1 0.00 0.00 0.00 32 1009.5
20260504220131 72 265 5.2 7.8 0.00 0.00 0.00 32 1009.5
20260504215626 72 199 7.0 13.0 0.00 0.00 0.00 32 1009.5
20260504215124 73 198 11.3 15.6 0.00 0.00 0.00 31 1009.6
20260504214620 73 244 5.2 13.0 0.00 0.00 0.00 31 1009.5
20260504214116 73 265 4.3 9.6 0.00 0.00 0.00 31 1009.5
20260504213613 73 254 0.9 6.1 0.00 0.00 0.00 31 1009.5
20260504213110 73 241 3.5 9.6 0.00 0.00 0.00 31 1009.5
20260504212606 73 244 4.3 7.8 0.00 0.00 0.00 31 1009.8
20260504212103 73 228 2.6 8.7 0.00 0.00 0.00 31 1009.7
20260504211600 73 284 2.6 6.1 0.00 0.00 0.00 32 1009.4
20260504211057 73 239 4.3 11.3 0.00 0.00 0.00 32 1009.4
20260504210554 73 253 3.5 11.3 0.00 0.00 0.00 31 1009.5
20260504210050 73 250 3.5 6.1 0.00 0.00 0.00 31 1009.4
20260504205548 73 232 6.1 13.0 0.00 0.00 0.00 30 1009.6
20260504205046 73 263 2.6 8.7 0.00 0.00 0.00 30 1009.6
20260504204544 73 254 5.2 12.2 0.00 0.00 0.00 31 1009.6
20260504204043 73 258 6.1 13.0 0.00 0.00 0.00 30 1009.6
20260504203540 73 298 6.1 8.7 0.00 0.00 0.00 30 1009.5
20260504203038 73 228 5.2 13.0 0.00 0.00 0.00 29 1009.5
20260504202533 73 207 9.6 13.9 0.00 0.00 0.00 29 1009.7
20260504202030 74 248 4.3 7.8 0.00 0.00 0.00 30 1009.6
20260504201527 74 267 3.5 7.8 0.00 0.00 0.00 29 1009.6
20260504201025 74 242 3.5 9.6 0.00 0.00 0.00 30 1009.5
20260504200521 74 226 4.3 6.1 0.00 0.00 0.00 30 1009.5
20260504200018 74 268 4.3 7.8 0.00 0.00 0.00 29 1009.6
20260504195514 74 256 4.3 9.6 0.00 0.00 0.00 28 1009.9
20260504195011 74 248 4.3 7.8 0.00 0.00 0.00 29 1009.9
20260504194507 74 250 7.0 11.3 0.00 0.00 0.00 28 1010.0
20260504194002 74 245 3.5 6.1 0.00 0.00 0.00 30 1009.8
20260504193500 74 204 7.0 9.6 0.00 0.00 0.00 29 1010.0
20260504192959 75 264 2.6 11.3 0.00 0.00 0.00 30 1009.9
20260504192456 75 244 3.5 11.3 0.00 0.00 0.00 29 1010.1
20260504191955 74 195 5.2 7.8 0.00 0.00 0.00 29 1010.1
20260504191452 74 262 2.6 7.8 0.00 0.00 0.00 31 1010.2
20260504190947 73 278 4.3 6.1 0.00 0.00 0.00 30 1010.2
20260504190443 73 221 5.2 9.6 0.00 0.00 0.00 29 1010.4
20260504185940 73 269 2.6 5.2 0.00 0.00 0.00 30 1010.5
20260504185437 73 241 4.3 9.6 0.00 0.00 0.00 30 1010.4
20260504184933 73 257 5.2 7.8 0.00 0.00 0.00 31 1010.6
20260504184429 73 255 1.7 6.1 0.00 0.00 0.00 30 1010.7
20260504183925 72 308 3.5 7.8 0.00 0.00 0.00 31 1010.9
20260504183423 73 288 6.1 9.6 0.00 0.00 0.00 30 1010.9
20260504182921 72 222 2.6 5.2 0.00 0.00 0.00 31 1011.0
20260504182417 72 266 0.9 7.8 0.00 0.00 0.00 31 1011.0
20260504181914 72 244 6.1 13.0 0.00 0.00 0.00 30 1011.1
20260504181411 72 232 4.3 11.3 0.00 0.00 0.00 30 1011.1
20260504180910 72 264 5.2 9.6 0.00 0.00 0.00 29 1011.3
20260504180408 72 244 2.6 5.2 0.00 0.00 0.00 30 1011.1
20260504175906 72 226 5.2 7.8 0.00 0.00 0.00 31 1011.5
20260504175403 71 272 4.3 7.0 0.00 0.00 0.00 32 1011.6
20260504174901 71 236 3.5 7.8 0.00 0.00 0.00 31 1011.3
20260504174358 71 252 2.6 8.7 0.00 0.00 0.00 31 1011.5
20260504173855 72 259 9.6 13.9 0.00 0.00 0.00 29 1011.6
20260504173351 71 267 3.5 5.2 0.00 0.00 0.00 31 1011.7
20260504172849 71 265 1.7 6.1 0.00 0.00 0.00 32 1011.9
20260504172345 71 266 5.2 8.7 0.00 0.00 0.00 31 1011.9
20260504171841 71 263 4.3 6.1 0.00 0.00 0.00 30 1011.7
20260504171338 70 277 3.5 6.1 0.00 0.00 0.00 31 1012.0
20260504170836 72 239 4.3 13.0 0.00 0.00 0.00 29 1012.1
20260504170332 71 304 1.7 2.6 0.00 0.00 0.00 32 1011.9
20260504160251 68 256 5.2 6.1 0.00 0.00 0.00 35 1012.7
20260504150716 65 264 1.7 7.0 0.00 0.00 0.00 40 1013.4
20260504150213 66 273 7.0 9.6 0.00 0.00 0.00 40 1013.3
20260504141142 63 194 7.8 11.3 0.00 0.00 0.00 47 1013.4
20260504140639 63 236 7.8 13.0 0.00 0.00 0.00 47 1013.7
20260504140134 63 288 4.3 9.6 0.00 0.00 0.00 48 1013.5
20260504130602 59 263 1.7 7.8 0.00 0.00 0.00 55 1013.9
20260504110450 50 239 0.9 2.6 0.00 0.00 0.00 73 1014.8
20260504100413 48 230 2.6 3.5 0.00 0.00 0.00 71 1014.8